Petersburg, AK

8:44 AM AKDT on April 29, 2017 (GMT -0800)
Johnson Petersburg

Weather History for PAPG - January, 2013

Change the Weather History Date:

Wednesday, January 16, 2013

  Actual Average Record
Temperature  
Mean Temperature 35 °F -  
Max Temperature 37 °F 32 °F 46 °F (1985)
Min Temperature 33 °F 24 °F 0 °F (2012)
Degree Days  
Heating Degree Days 30    
Moisture  
Dew Point 34 °F    
Average Humidity 93    
Maximum Humidity 100    
Minimum Humidity 87    
Precipitation  
Precipitation 0.44 in - - ()
Sea Level Pressure  
Sea Level Pressure 30.22 in    
Wind  
Wind Speed 1 mph (WSW)    
Max Wind Speed 6 mph    
Max Gust Speed -    
Visibility 4 miles    
Events      
Averages and records for this station are not official NWS values.
T = Trace of Precipitation, MM = Missing Value Source: NWS Daily Summary

Daily Weather History Graph

Daily Weather History Graph

Search for Another Location

Airport or City:

Trip Planner

Search our weather history database for the weather conditions in past years. The results will help you decide how hot, cold, wet, or windy it might be!

Date:

Astronomy

Jan. 16, 2013 Rise Set
Actual Time 8:15 AM AKST 3:48 PM AKST
Civil Twilight 7:30 AM AKST 4:33 PM AKST
Nautical Twilight 6:41 AM AKST 5:22 PM AKST
Astronomical Twilight 5:56 AM AKST 6:07 PM AKST
Moon 9:39 AM AKST (1/16) 11:10 PM AKST (1/16)
Length of Visible Light 9h 03m
Length of Day
7h 32m
Waxing Crescent, 29% of the Moon is Illuminated
Jan 16
Waxing Crescent
Jan 18
First Quarter
Jan 26
Full
Feb 3
Last Quarter
Feb 9
New

Hourly Weather History & Observations

Time (AKST) Temp. Windchill Dew Point Humidity Pressure Visibility Wind Dir Wind Speed Gust Speed Precip Events Conditions
12:16 AM 35.6 °F - 33.8 °F 93% 30.37 in 1.0 mi Calm Calm - N/A   Overcast
12:36 AM 35.6 °F - 33.8 °F 93% 30.37 in 2.0 mi Calm Calm - N/A   Overcast
12:56 AM 35.6 °F 32.8 °F 33.8 °F 93% 30.38 in 7.0 mi WSW 3.5 mph - N/A   Overcast
1:16 AM 33.8 °F 29.6 °F 32.0 °F 93% 30.39 in 2.5 mi West 4.6 mph - N/A   Overcast
1:36 AM 35.6 °F - 33.8 °F 93% 30.39 in 4.0 mi Calm Calm - N/A   Overcast
1:56 AM 35.6 °F - 33.8 °F 93% 30.38 in 7.0 mi Calm Calm - N/A   Mostly Cloudy
2:16 AM 33.8 °F - 32.0 °F 93% 30.38 in 0.5 mi Calm Calm - N/A   Overcast
3:16 AM 35.6 °F - 33.8 °F 93% 30.38 in 4.0 mi Calm Calm - N/A   Overcast
3:36 AM 33.8 °F 30.8 °F 32.0 °F 93% 30.38 in 0.2 mi WSW 3.5 mph - N/A   Overcast
3:56 AM 35.6 °F - 33.8 °F 93% 30.38 in 10.0 mi Calm Calm - N/A   Overcast
4:16 AM 35.6 °F - 33.8 °F 93% 30.38 in 0.2 mi Calm Calm - N/A   Overcast
4:36 AM 35.6 °F - 33.8 °F 93% 30.37 in 0.2 mi Calm Calm - N/A   Overcast
4:56 AM 35.6 °F 32.8 °F 33.8 °F 93% 30.37 in 1.0 mi SW 3.5 mph - N/A   Overcast
5:16 AM 35.6 °F - 33.8 °F 93% 30.38 in 10.0 mi Calm Calm - N/A   Overcast
5:36 AM 35.6 °F - 33.8 °F 93% 30.38 in 10.0 mi Calm Calm - N/A   Overcast
5:56 AM 35.6 °F - 33.8 °F 93% 30.37 in 7.0 mi Calm Calm - N/A   Overcast
6:16 AM 35.6 °F - 33.8 °F 93% 30.37 in 7.0 mi Calm Calm - N/A   Overcast
6:36 AM 33.8 °F - 32.0 °F 93% 30.37 in 7.0 mi Calm Calm - N/A   Overcast
6:56 AM 35.6 °F - 33.8 °F 93% 30.37 in 4.0 mi Calm Calm - N/A   Overcast
7:16 AM 35.6 °F - 33.8 °F 93% 30.37 in 4.0 mi Calm Calm - N/A   Overcast
7:36 AM 35.6 °F - 33.8 °F 93% 30.37 in 4.0 mi Calm Calm - N/A   Overcast
7:56 AM 35.6 °F - 33.8 °F 93% 30.36 in 0.8 mi Calm Calm - N/A   Overcast
8:16 AM 35.6 °F - 33.8 °F 93% 30.35 in 0.8 mi Calm Calm - N/A   Overcast
8:36 AM 35.6 °F - 33.8 °F 93% 30.34 in 0.8 mi Calm Calm - N/A   Overcast
8:56 AM 35.6 °F - 33.8 °F 93% 30.35 in 0.8 mi Calm Calm - N/A   Overcast
9:16 AM 35.6 °F - 33.8 °F 93% 30.34 in 0.8 mi Calm Calm - N/A   Overcast
9:36 AM 35.6 °F - 33.8 °F 93% 30.33 in 0.8 mi Calm Calm - N/A   Overcast
9:56 AM 35.6 °F - 35.6 °F 100% 30.32 in 2.5 mi Calm Calm - N/A   Mostly Cloudy
10:16 AM 35.6 °F 32.8 °F 33.8 °F 93% 30.31 in 2.5 mi WSW 3.5 mph - N/A   Mostly Cloudy
10:36 AM 35.6 °F - 33.8 °F 93% 30.31 in 2.5 mi Calm Calm - N/A   Mostly Cloudy
10:56 AM 37.4 °F - 35.6 °F 93% 30.30 in 7.0 mi Calm Calm - N/A   Mostly Cloudy
11:16 AM 37.4 °F - 35.6 °F 93% 30.28 in 2.5 mi Calm Calm - N/A   Overcast
11:36 AM 37.4 °F - 35.6 °F 93% 30.26 in 5.0 mi Calm Calm - 0.01 in   Overcast
11:56 AM 37.4 °F - 35.6 °F 93% 30.25 in 10.0 mi Calm Calm - N/A   Overcast
12:16 PM 37.4 °F - 33.8 °F 87% 30.23 in 10.0 mi Calm Calm - 0.01 in   Overcast
12:36 PM 37.4 °F 34.9 °F 35.6 °F 93% 30.22 in 10.0 mi SW 3.5 mph - 0.03 in   Overcast
12:56 PM 37.4 °F - 33.8 °F 87% 30.21 in 5.0 mi Calm Calm - 0.04 in   Overcast
1:16 PM 37.4 °F - 35.6 °F 93% 30.20 in 5.0 mi Calm Calm - 0.03 in   Overcast
1:36 PM 37.4 °F - 35.6 °F 93% 30.18 in 5.0 mi Calm Calm - 0.07 in   Overcast
1:56 PM 37.4 °F - 35.6 °F 93% 30.18 in 5.0 mi Calm Calm - 0.08 in   Overcast
2:16 PM 37.4 °F - 35.6 °F 93% 30.17 in 5.0 mi Calm Calm - 0.02 in   Overcast
2:36 PM 37.4 °F - 35.6 °F 93% 30.16 in 5.0 mi Calm Calm - 0.03 in   Overcast
2:56 PM 37.4 °F 34.9 °F 35.6 °F 93% 30.15 in 5.0 mi NNW 3.5 mph - 0.04 in   Overcast
3:16 PM 35.6 °F - 33.8 °F 93% 30.15 in 5.0 mi Calm Calm - 0.01 in   Overcast
3:36 PM 35.6 °F - 33.8 °F 93% 30.14 in 5.0 mi Calm Calm - 0.02 in   Overcast
3:56 PM 35.6 °F 32.8 °F 33.8 °F 93% 30.14 in 5.0 mi WSW 3.5 mph - 0.03 in   Overcast
4:16 PM 35.6 °F 32.8 °F 33.8 °F 93% 30.12 in 5.0 mi WSW 3.5 mph - 0.03 in   Overcast
4:36 PM 35.6 °F 31.7 °F 32.0 °F 87% 30.11 in 5.0 mi SW 4.6 mph - 0.03 in   Overcast
4:56 PM 35.6 °F 31.7 °F 33.8 °F 93% 30.10 in 5.0 mi SW 4.6 mph - 0.04 in   Overcast
5:16 PM 35.6 °F 31.7 °F 33.8 °F 93% 30.09 in 5.0 mi SW 4.6 mph - 0.01 in   Overcast
5:36 PM 35.6 °F 32.8 °F 33.8 °F 93% 30.08 in 5.0 mi WSW 3.5 mph - 0.01 in   Overcast
5:56 PM 35.6 °F 32.8 °F 33.8 °F 93% 30.07 in 5.0 mi WSW 3.5 mph - 0.03 in   Overcast
6:16 PM 35.6 °F - 33.8 °F 93% 30.06 in 5.0 mi Calm Calm - 0.03 in   Overcast
6:36 PM - - - N/A% - 5.0 mi WSW 3.5 mph - N/A   Overcast
6:56 PM 35.6 °F 31.7 °F 33.8 °F 93% 30.04 in 5.0 mi SW 4.6 mph - N/A   Overcast
7:16 PM 35.6 °F 30.7 °F 33.8 °F 93% 30.03 in 5.0 mi West 5.8 mph - N/A   Overcast
7:36 PM 35.6 °F 30.7 °F 33.8 °F 93% 30.02 in 5.0 mi SW 5.8 mph - 0.01 in   Overcast
7:56 PM 35.6 °F 32.8 °F 33.8 °F 93% 30.01 in 5.0 mi SW 3.5 mph - 0.02 in   Overcast
8:16 PM 35.6 °F 30.7 °F 32.0 °F 87% 30.00 in 5.0 mi SW 5.8 mph - 0.01 in   Overcast
8:36 PM 35.6 °F - 33.8 °F 93% 29.99 in 5.0 mi Calm Calm - 0.04 in   Overcast
8:56 PM 35.6 °F 32.8 °F 33.8 °F 93% 29.99 in 5.0 mi SW 3.5 mph - 0.04 in   Overcast
9:16 PM 35.6 °F 32.8 °F 33.8 °F 93% 29.97 in 5.0 mi NNW 3.5 mph - 0.02 in   Overcast
9:36 PM 35.6 °F 32.8 °F 33.8 °F 93% 29.96 in 5.0 mi SSW 3.5 mph - 0.04 in   Overcast
9:56 PM 35.6 °F 31.7 °F 33.8 °F 93% 29.95 in 5.0 mi SW 4.6 mph - 0.06 in   Overcast
10:16 PM 35.6 °F - 33.8 °F 93% 29.95 in 5.0 mi Calm Calm - N/A   Overcast
10:36 PM 35.6 °F 32.8 °F 33.8 °F 93% 29.93 in 2.5 mi WNW 3.5 mph - 0.02 in   Overcast